Simultaneous Nadir Overpasses (SNOs) Predictions

Prediction of SNOs between AQUA and NPP Satellite Orbit:

Table of predicted SNOs for the next 14.0 days since TLE Epoch: 11/12/2022
Index Date (AQUA) Time (AQUA) Lat,Lon (AQUA) SZA (AQUA ) Date (NPP) Time (NPP) Lat,Lon (NPP) SZA (NPP ) Distance(km) Time Diff (sec)
1 11/13/2022 04:14:24 -79.13,-169.34 70.16 11/13/2022 04:14:18 -79.14,-169.23 70.18 2.53 6
2 11/13/2022 05:03:44 79.33, -0.38 109.58 11/13/2022 05:04:57 79.32, -0.51 109.55 3.08 73
3 11/15/2022 19:40:30 79.12, 139.11 110.54 11/15/2022 19:40:26 79.13, 139.19 110.53 1.77 4
4 11/15/2022 20:29:37 -79.85, -48.13 70.45 11/15/2022 20:30:51 -79.80, -47.96 70.53 6.17 74
5 11/18/2022 11:06:38 -79.06, 87.19 68.73 11/18/2022 11:06:37 -79.05, 87.10 68.71 1.89 1
6 11/18/2022 11:53:34 81.60, -50.74 103.59 11/18/2022 11:54:47 80.97, -51.65 103.23 70.97 73
7 11/21/2022 01:44:53 -74.58,-149.10 63.21 11/21/2022 01:43:39 -74.79,-150.19 62.96 39.34 74
8 11/21/2022 02:32:38 79.17, 36.41 111.75 11/21/2022 02:32:40 79.17, 36.44 111.74 0.58 2
9 11/23/2022 17:09:25 78.81, 175.12 112.78 11/23/2022 17:08:13 78.81, 175.11 112.84 0.28 72



Historial Predications of SNOs between AQUA and NPP
